FENGYUN 1C DEB

Satellite information

Favourite Embed

Satellite Type and Status

DEBRISIN ORBIT

Key statistics

Satellite FENGYUN 1C DEB at a glance.

Uptime

9555

Days in orbit

Revolutions

≈ 14.3

Per day

Orbit

SSO

Sun Synchronous Orbit

Inclination

98.7

Latest

Satellite identification and parameters

Extended collection of information and parameters for FENGYUN 1C DEB.

Object identification

Identified? True

Debris? True

Object name: FENGYUN 1C DEB

International designator: 1999-025AYH

Object number (NORAD): 30895

Object ID (CCSDS): 30895

Country: PEOPLES REPUBLIC OF CHINA (PRC)

Current information (Y/N): Y

RCS size: SMALL

Orbital parameters

Period: 100.626 minutes

Inclination: 98.737 deg

SMA: 7166.411 km

Apoapsis: 944.387 km

Periapsis: 632.164 km

RAAN: 254.7447 deg

Eccentricy: 0.0217838

Argument of periapsis: 232.4229 deg

Mean anomaly: 156.4968 deg

Mean motion: 14.31034881 rev/day

Mean motion (dot): 0.00000634 rev/day2

B* drag term: 0.00020137 1/REarth

Two-line elements (TLE)

Creation date: July 6, 2025, 6:05 p.m.

Reference frame: TEME

Reference center: EARTH

Epoch: July 6, 2025, 3:35 a.m. UTC

TLE line 0: 0 FENGYUN 1C DEB

TLE line 1: 1 30895U 99025AYH 25187.14961395 .00000634 00000-0 20137-3 0 9990

TLE line 2: 2 30895 98.7370 254.7447 0217838 232.4229 156.4968 14.31034881955109

Live tracking on map

Real-time ground track for satellite FENGYUN 1C DEB.

In-orbit conjunctions

A list of the most updated potential collisions computed for object FENGYUN 1C DEB.

Target Orbit TCA Probability of collision Miss distance Type
THORAD AGENA D DEB LEO 2025-05-24 23:52:54 0.0002371374 39.0 (m) DEBRIS
FENGYUN 1C DEB SSO 2024-09-21 13:46:01 0.0001956645 227.0 (m) DEBRIS
CZ-6A R/B SSO 2024-07-09 13:05:58 0.0003935059 484.0 (m) ROCKET BODY

Associated space launch

Chinese polar orbiting meteorological satellite

FENGYUN 1C DEB was lifted into orbit during the mission ‘Long March 4B | Feng Yun 1C’, on board a Long March 4B space rocket.

The launch took place on May 10, 1999, 1:33 a.m. from Launch Complex 7.

For more information about the launch, click the button.

Launch to space Long March 4B | Feng Yun 1C
Long March 4B | Feng Yun 1C

Agency: N/A

Status: Launch Successful

Launch date: May 10, 1999, 1:33 a.m. UTC

Rocket: Long March 4B

Launch pad: Launch Complex 7

Location: Taiyuan Satellite Launch Center, People's Republic of China

...

Latest news about this satellite

There are no fresh news available about this satellite. Check back as we update our databases every day.


Newsletter sign-up

Weekly statistics, charts and insights to help you stay on top of the space industry.